Location: Zlin
(49.2330°N, 17.6670°E)
Time: 22:46:36
(UTC+01:00)

ISS - Visible Passes

Search period start: 25 March 2017 00:00
Search period end: 04 April 2017 01:00
Orbit: 399 x 409 km, 51.6° (Epoch: 26 March)

Date Brightness Start Highest point End Pass type
(mag) Time Alt. Az. Time Alt. Az. Time Alt. Az.
27 Mar -1.7 20:17:20 10° SSE 20:18:27 13° SE 20:18:27 13° SE visible
28 Mar -2.9 20:59:30 10° SW 21:01:53 34° S 21:01:53 34° S visible
29 Mar -2.6 20:07:36 10° SSW 20:10:19 25° SE 20:12:20 14° E visible
29 Mar -2.1 21:43:15 10° WSW 21:45:01 29° WSW 21:45:01 29° WSW visible
30 Mar -3.9 20:50:53 10° WSW 20:54:08 70° SSE 20:55:14 37° E visible
30 Mar -0.7 22:27:29 10° W 22:27:54 13° W 22:27:54 13° W visible
31 Mar -3.4 19:58:39 10° SW 20:01:47 45° SSE 20:04:56 10° ENE visible
31 Mar -3.3 21:34:58 10° W 21:37:56 58° NW 21:37:56 58° NW visible
01 Apr -3.7 20:42:29 10° WSW 20:45:44 76° NNW 20:47:49 21° ENE visible
01 Apr -1.3 22:19:12 10° WNW 22:20:29 21° WNW 22:20:29 21° WNW visible
02 Apr -3.9 19:50:02 10° WSW 19:53:17 79° SSE 19:56:34 10° ENE visible
02 Apr -3.3 21:26:41 10° W 21:29:54 53° N 21:30:15 50° NNE visible
03 Apr -3.3 20:34:08 10° W 20:37:22 58° N 20:39:56 15° ENE visible
03 Apr -1.8 22:10:48 10° WNW 22:12:35 29° WNW 22:12:35 29° WNW visible
